GFSFLT2_con_3kmhel_000.txt.gz
Helicity
122 131 193 260 269 305 274 276 279 181 100 176 211 164 145 227 312 341 326 255 201 183 167 164 147 154 99
60 90 124 177 260 302 352 371 353 205 135 156 226 172 209 252 449 372 350 222 221 178 179 180 139 116 97
81 74 90 124 207 276 284 332 325 237 212 133 157 220 259 394 388 516 471 351 285 201 165 152 136 96 107
101 81 66 67 147 141 186 236 249 302 174 196 174 160 266 396 446 513 465 416 231 186 146 136 151 108 122
59 44 115 103 66 109 198 190 198 185 291 222 291 404 431 404 481 580 301 386 225 155 89 107 125 101 115
78 83 63 63 35 73 91 137 184 357 310 323 462 625 607 630 562 573 375 264 164 127 87 102 94 86 115
97 82 74 94 98 77 59 106 162 373 272 359 451 499 546 694 495 419 248 188 133 101 72 72 92 123 129
88 93 103 111 115 86 74 80 250 459 453 406 375 443 639 504 447 267 196 136 79 46 42 85 116 121 109
39 65 73 71 86 125 108 142 183 330 485 441 488 578 495 463 374 189 130 46 25 52 80 97 104 102 98
-12 25 65 83 100 95 83 117 182 268 327 525 518 486 354 379 299 231 86 24 46 60 74 80 107 151 130
16 17 22 29 54 45 49 75 169 326 269 443 474 492 427 343 236 137 95 139 171 120 102 116 87 99 143
50 11 6 17 53 33 47 120 216 192 233 369 397 560 469 326 211 167 167 178 204 231 199 151 114 86 91
33 0 20 -2 43 28 147 248 336 393 425 329 312 354 231 159 139 158 204 154 150 149 131 124 132 144 149
-7 -21 0 -28 14 60 146 200 287 312 253 190 203 162 126 145 152 171 173 150 131 113 120 129 132 125 114
-43 -33 -27 11 66 119 158 145 130 121 134 135 119 115 120 106 139 113 117 112 104 143 124 106 88 86 85
-44 -21 -13 27 68 122 112 64 61 43 47 40 64 92 102 100 71 104 96 99 107 103 99 95 63 77 81
-35 -4 -2 43 86 140 108 42 24 48 43 49 50 68 98 101 65 50 95 94 93 86 82 87 80 118 136

GFSFLT2_con_3kmhel_003.txt.gz
Helicity
70 63 71 75 70 110 164 192 190 149 181 181 170 180 108 120 116 159 213 192 148 191 296 308 252 191 137
40 19 27 47 76 86 110 127 174 146 140 136 149 196 164 130 111 125 155 195 215 291 351 346 293 237 158
104 85 45 47 50 67 123 139 145 125 149 133 122 111 95 96 65 125 129 259 381 440 522 394 363 218 178
77 67 46 29 66 28 -8 68 95 147 104 104 116 126 82 21 49 110 220 308 650 459 588 558 505 343 226
36 34 32 0 12 26 29 -16 -20 48 67 66 149 161 152 63 74 168 296 301 237 773 664 544 413 403 218
22 26 30 41 23 24 35 20 15 36 74 42 132 114 147 167 117 231 458 548 625 616 543 565 317 294 301
37 42 66 91 64 37 41 57 61 58 61 55 143 138 169 213 183 353 609 791 597 582 369 281 259 235 199
51 48 38 24 58 67 88 92 82 79 126 72 136 209 303 297 251 425 688 681 556 346 231 241 237 131 86
16 12 36 58 52 71 87 98 77 54 97 155 172 308 347 377 409 508 524 412 323 294 231 165 95 70 78
-67 -39 -12 33 56 65 64 90 93 26 116 252 284 325 236 372 577 623 603 347 251 138 102 68 59 136 174
-45 -66 -31 15 51 68 84 92 76 35 45 215 323 383 402 329 488 520 352 334 207 120 54 52 58 134 194
-59 -63 -24 9 24 48 51 7 -15 -41 -29 213 252 463 471 386 374 394 387 283 176 176 200 116 58 95 131
-44 -29 -6 -7 -13 -31 -52 -52 42 163 231 304 252 353 363 367 379 380 250 160 155 196 186 183 180 169 142
-34 -23 -62 -77 -70 -83 -79 -4 127 208 240 277 272 255 233 179 163 157 145 124 129 146 167 159 128 106 113
-28 -59 -104 -87 -69 -86 -30 80 143 141 109 125 195 165 133 94 126 128 124 117 121 162 165 139 104 112 120
-14 -70 -88 -82 -54 -28 -7 82 48 41 29 83 95 107 123 164 114 104 111 124 125 126 127 122 132 124 98
-49 -93 -80 -45 -17 -4 45 83 50 26 45 60 78 53 71 87 85 80 90 94 111 115 115 127 127 106 71

GFSFLT2_con_3kmhel_006.txt.gz
Helicity
70 14 28 21 17 34 39 29 25 29 65 72 90 72 74 104 114 80 113 117 113 87 103 128 165 189 252
36 12 25 14 21 20 14 35 38 47 30 65 71 108 79 75 90 105 91 125 88 64 88 125 195 243 329
46 17 27 12 5 31 20 -2 43 68 27 37 41 197 112 95 84 59 82 98 69 81 130 92 243 307 291
-5 22 13 -12 -17 -13 -24 19 -3 38 62 53 55 -50 61 52 63 44 46 87 91 59 120 97 189 355 485
82 53 61 58 33 12 21 21 46 26 31 69 52 57 76 53 46 64 58 67 53 88 90 124 167 602 596
94 99 100 98 86 61 69 26 -37 -4 -3 17 18 7 -11 29 33 17 81 52 55 51 68 174 530 736 685
110 127 103 91 63 -6 20 27 45 29 19 50 38 39 24 51 60 87 63 56 57 108 266 430 809 791 937
103 115 94 64 -5 10 5 -5 -12 -9 37 47 17 26 53 85 57 49 15 34 99 329 620 841 766 760 745
27 31 7 -4 12 4 -0 -4 -61 -70 -20 22 30 53 92 59 42 8 28 269 428 595 653 586 642 409 371
-25 -12 16 20 -12 -8 20 14 -25 -76 10 -6 10 19 -36 -16 53 269 267 393 417 488 524 436 330 320 281
-18 5 9 -7 -9 -27 11 38 -11 -16 -9 4 -5 30 91 74 156 418 511 561 600 556 300 200 164 309 323
-16 -2 -25 -36 -43 -35 -21 -7 -15 -69 -43 -30 -27 -7 114 154 173 364 462 491 450 387 265 157 158 146 136
-0 -8 -34 -29 -26 -29 -48 -75 -117 -108 -65 -67 -58 77 172 124 226 347 478 444 389 314 308 286 221 149 145
9 -3 -17 -42 -33 -75 -83 -83 -115 -121 -45 52 109 123 173 156 225 355 407 371 314 290 223 228 263 259 180
7 -17 -23 -67 -84 -79 -64 -73 -77 -56 11 101 134 156 154 221 240 304 276 163 151 158 205 204 166 141 174
8 -22 -29 -57 -52 -34 -34 -32 -25 41 46 83 91 106 127 154 93 81 99 101 145 127 118 123 107 114 110
13 -23 3 -22 -2 18 -0 -8 27 48 53 60 78 75 73 48 58 52 50 45 82 108 119 131 116 96 97

GFSFLT2_con_3kmhel_009.txt.gz
Helicity
87 78 42 -5 -44 -36 -2 12 18 35 66 108 113 85 114 88 81 101 100 96 80 84 90 193 111 88 97
76 25 -2 -35 -41 -40 -35 -9 28 28 16 51 104 101 81 101 122 115 124 134 95 91 72 59 69 135 103
65 30 -4 -13 -25 -28 -32 -3 17 3 12 55 127 141 93 103 129 165 124 143 131 82 79 77 45 79 36
35 31 23 16 30 36 19 50 49 66 69 75 83 126 174 115 121 112 71 158 91 98 88 83 71 62 55
71 63 53 56 82 87 98 85 100 113 94 109 111 104 139 154 162 137 102 25 52 67 88 70 82 43 11
53 57 45 54 72 76 136 113 56 22 29 37 48 97 85 65 46 68 54 63 112 90 65 78 46 68 66
87 79 35 35 25 42 26 -1 24 31 -15 -13 33 62 144 122 116 112 114 115 119 109 73 61 71 41 65
94 100 85 27 14 3 -28 -9 10 15 -2 1 6 55 43 79 110 116 98 105 121 108 93 63 57 34 31
32 17 4 11 1 -19 -2 -11 -31 -22 2 5 -10 -7 7 65 75 69 93 90 89 100 96 90 211 454 431
36 34 17 12 17 -10 -18 -28 -33 -16 -2 15 -16 -37 -71 -14 21 47 100 71 42 114 229 452 596 693 816
13 6 9 -5 -24 -40 -36 -19 -1 1 -9 -6 14 9 -5 28 11 28 266 256 279 296 353 541 535 550 721
-26 -11 -16 -10 -14 -18 -29 1 13 1 -16 8 13 2 5 17 31 58 228 464 441 401 441 368 357 343 332
5 12 -9 3 1 -26 -31 -9 -26 -23 -12 2 -8 8 -0 21 54 67 186 301 366 378 328 281 258 271 287
9 14 1 -28 -59 -60 -47 -36 -26 -34 -66 -33 -13 -11 21 40 75 93 164 238 324 333 359 351 259 242 293
9 -4 -25 -58 -34 -0 6 1 -6 -24 -27 -12 30 60 53 73 112 155 192 277 301 325 347 350 324 251 211
35 -20 -15 37 81 75 34 19 -3 4 17 28 75 84 67 161 212 201 260 271 271 271 285 279 270 272 216
34 84 109 129 131 109 69 30 17 20 32 47 63 97 90 74 141 123 112 143 142 174 156 165 176 116 71

GFSFLT2_con_3kmhel_012.txt.gz
Helicity
157 104 72 50 40 26 10 0 -3 -8 32 63 78 82 112 98 80 76 55 90 87 104 49 63 78 63 44
148 138 93 81 72 52 26 21 -1 -23 -1 29 52 63 90 114 108 78 73 72 97 132 96 72 103 92 86
162 142 133 114 96 78 61 12 10 12 13 27 21 40 46 63 105 91 85 73 86 113 129 113 93 122 131
133 120 107 93 100 96 40 37 16 18 58 34 86 74 89 107 131 114 163 172 147 129 143 154 120 98 94
113 109 96 89 92 88 67 27 -8 -13 23 21 34 70 111 172 129 166 131 140 154 157 160 135 182 136 78
119 127 101 122 115 107 96 47 -8 14 10 -20 24 30 84 122 114 109 138 139 145 133 135 122 93 75 66
126 123 123 123 106 98 65 22 -30 -24 -1 13 15 25 41 55 101 129 177 154 129 108 103 100 59 63 42
108 116 115 100 66 44 -12 -13 -18 -11 -2 45 -25 -18 17 34 99 156 207 160 97 85 101 90 61 31 44
29 21 16 10 29 21 -43 -54 -36 -9 -14 -36 -35 -3 -7 0 80 60 121 105 150 145 117 80 48 34 58
49 48 29 32 5 4 -51 -60 -57 -34 -21 -15 -14 -3 -24 14 35 49 79 149 208 154 83 81 77 146 131
72 78 70 55 1 -42 -52 -63 -47 -15 -54 -41 -24 4 33 60 41 83 79 183 238 240 216 184 230 250 334
80 22 -21 -30 -35 -41 -23 -20 -21 -6 6 -17 -34 0 17 33 67 80 69 159 246 239 304 303 321 447 542
14 9 -11 -5 3 -10 -20 -17 -6 17 1 -36 13 3 14 41 61 66 106 162 295 264 341 413 498 512 528
18 19 6 1 -15 -16 -38 -1 21 4 -37 58 3 5 19 30 51 71 87 141 316 379 286 300 311 379 413
-13 -11 22 44 47 37 66 92 40 1 -13 -14 -12 21 43 55 55 67 88 131 234 199 231 307 306 298 325
55 79 80 97 139 168 138 71 20 15 9 12 54 62 32 83 165 117 164 222 227 236 207 217 285 292 275
121 104 124 146 168 132 54 44 35 42 63 64 71 66 59 120 188 248 201 245 239 310 236 212 255 339 276

GFSFLT2_con_3kmhel_015.txt.gz
Helicity
193 160 123 98 103 101 86 89 90 52 32 30 26 27 61 103 97 101 114 132 118 105 118 155 106 65 39
166 143 124 99 95 93 76 63 65 52 38 30 32 18 24 69 133 126 122 123 128 87 63 78 83 91 65
184 156 139 113 93 82 62 40 60 63 60 59 43 20 13 32 101 115 113 114 116 118 109 74 79 76 106
178 150 113 81 100 107 57 53 89 93 52 46 31 38 19 32 41 101 120 120 127 116 104 124 133 82 80
163 134 128 106 90 91 113 102 113 91 94 87 62 66 19 3 -5 37 66 117 133 147 135 117 135 115 117
205 178 141 129 130 131 135 141 84 89 70 76 68 35 34 22 15 43 77 82 129 108 93 118 141 104 107
162 158 132 124 116 122 127 120 115 101 84 13 65 7 1 -6 9 60 54 83 133 155 96 54 79 102 96
161 140 131 116 108 93 65 42 74 64 -14 17 -58 -15 -62 -18 3 46 106 107 117 132 184 188 118 88 85
52 32 13 9 30 35 13 -17 49 -10 -37 -73 -54 -69 -66 15 43 69 88 82 113 112 137 128 43 15 30
63 62 59 64 20 -2 -27 -27 0 4 -23 -64 -48 -40 1 22 24 37 32 77 130 139 98 55 30 57 45
43 48 52 27 -1 -23 -47 -69 -34 16 -35 -66 -34 7 16 101 117 129 123 100 202 233 90 -11 -2 32 62
44 45 8 -14 -30 -33 -7 9 1 1 2 3 11 27 40 35 113 122 157 209 114 211 239 221 149 151 186
33 18 32 3 27 47 58 56 48 64 71 88 66 -30 -32 41 96 124 165 170 124 196 295 367 420 378 421
-6 12 44 49 69 76 102 140 124 121 -11 -27 -39 -35 -12 48 77 133 143 125 157 209 257 378 511 528 489
27 57 81 88 109 143 190 146 53 -12 -19 -27 -13 -15 -12 47 61 65 100 115 146 165 197 246 345 396 555
115 129 135 132 167 177 139 75 43 31 50 33 20 15 31 37 151 119 147 162 173 176 169 188 279 302 228
168 161 167 184 164 152 55 63 63 102 128 115 92 84 64 96 151 247 202 218 196 235 254 251 225 265 214

GFSFLT2_con_3kmhel_021.txt.gz
Helicity
169 150 137 150 142 129 97 113 138 37 32 46 46 31 49 36 32 39 50 44 46 62 65 57 72 76 128
182 170 170 164 119 104 83 110 129 83 87 55 40 31 25 31 42 47 68 61 72 72 72 94 96 39 85
204 219 202 156 138 180 127 119 113 69 59 28 28 18 21 39 60 61 63 70 80 66 67 38 50 50 61
203 202 176 175 162 119 112 133 140 123 79 50 13 26 33 29 32 28 36 45 39 41 67 89 63 35 71
186 185 115 96 101 133 172 129 119 131 113 115 102 116 98 53 39 21 25 35 40 53 60 69 60 39 36
150 137 123 129 148 182 167 130 107 108 141 118 125 121 123 122 35 3 28 44 41 51 58 86 93 80 66
130 136 133 150 152 96 90 113 145 153 66 78 155 93 144 72 8 -8 -14 -12 37 55 43 39 55 50 58
129 133 125 96 61 50 35 57 133 151 105 117 80 56 64 57 52 25 14 -8 -12 9 39 60 43 43 47
32 31 14 26 41 -13 55 20 34 82 152 26 57 57 51 125 182 101 46 56 35 15 -10 12 8 15 9
40 44 71 68 20 4 -0 32 55 75 178 18 41 34 -16 191 135 172 138 142 90 51 29 22 16 -41 -35
111 108 67 57 67 81 106 131 150 197 219 76 129 115 101 160 192 198 196 199 121 94 81 73 75 77 10
63 70 86 116 138 160 171 178 198 218 168 90 120 75 126 156 169 161 182 153 177 214 188 177 140 169 154
93 119 129 163 183 191 185 186 179 148 103 127 149 103 77 156 169 207 193 137 185 181 137 171 109 77 120
100 146 166 174 160 154 178 178 154 150 116 93 60 78 108 123 162 213 189 140 183 197 237 226 193 140 102
123 168 186 178 163 133 158 156 157 154 160 106 84 86 112 147 222 220 184 163 172 230 226 261 242 216 189
153 160 153 145 152 157 152 160 154 139 154 115 130 134 105 126 231 253 177 196 171 173 179 181 241 294 272
155 150 138 142 113 143 142 128 131 123 124 112 147 164 160 196 236 171 159 198 188 171 145 155 167 196 248

GFSFLT2_con_3kmhel_024.txt.gz
Helicity
174 144 131 124 135 126 117 78 88 44 56 39 44 43 57 81 92 90 85 80 78 73 48 43 17 45 61
173 157 155 143 127 124 74 91 85 35 29 22 41 32 28 36 43 53 73 66 43 50 71 96 119 86 44
216 208 186 151 149 103 56 43 85 62 26 25 17 15 12 15 28 35 49 67 70 80 74 60 61 68 39
222 181 193 180 119 73 55 89 129 124 97 78 32 29 9 13 15 24 36 42 36 30 29 32 36 39 41
164 174 170 80 59 103 151 163 115 119 135 144 116 152 142 59 28 4 6 15 22 24 23 15 17 28 26
162 107 97 111 143 183 160 100 -23 117 148 141 163 149 133 126 29 5 -3 -12 -11 -15 16 26 27 32 29
114 126 108 137 97 91 115 152 170 145 133 51 159 151 179 99 46 38 10 -11 -16 -37 -62 39 38 39 35
119 102 80 67 57 28 7 40 132 166 83 97 167 172 147 145 118 75 22 -3 -6 3 -3 -29 -1 32 34
35 34 34 27 6 -20 15 42 112 163 141 135 189 162 123 211 189 107 30 41 45 38 34 0 -15 86 92
78 65 55 71 27 53 116 115 154 209 174 166 213 186 184 269 171 189 112 120 81 71 49 43 30 -57 59
85 78 75 96 122 133 151 157 178 242 200 102 202 194 184 244 279 195 165 189 171 166 108 54 29 12 -6
51 56 103 149 148 144 157 170 182 183 185 155 213 160 172 245 275 222 204 235 210 233 265 242 171 60 51
61 116 136 150 170 180 176 169 169 169 174 136 144 132 136 208 274 294 273 214 154 268 291 226 174 46 55
82 118 109 109 121 141 171 179 183 187 140 120 124 149 140 185 237 340 291 214 301 280 253 242 135 24 71
68 102 114 108 140 127 168 166 168 194 183 138 145 166 162 221 236 267 291 230 239 224 206 202 225 221 66
91 128 161 156 136 147 138 148 152 175 155 140 184 173 155 150 233 274 168 169 200 143 190 184 156 287 270
153 175 163 177 126 141 140 138 144 146 123 150 177 173 189 193 248 206 167 160 201 137 190 255 282 360 292

GFSFLT2_con_3kmhel_027.txt.gz
Helicity
214 175 166 163 132 119 117 107 124 27 35 43 35 46 41 39 49 51 88 115 46 54 77 83 84 112 127
210 202 165 139 148 131 112 133 94 33 1 12 18 6 11 43 29 28 37 40 56 71 62 62 60 49 41
224 198 178 160 134 135 109 104 91 58 44 29 13 22 29 19 22 22 26 38 44 43 44 58 76 79 65
189 198 195 164 160 134 72 93 125 130 97 77 78 43 20 20 23 4 13 33 36 30 36 42 50 53 52
222 188 181 139 100 121 154 118 149 189 205 157 141 162 165 90 33 -7 -23 -28 -23 -33 -23 6 14 13 14
154 143 100 135 127 156 162 68 55 168 85 173 154 98 159 144 86 25 -16 -28 -36 -33 -26 -19 -21 30 17
147 147 119 152 110 28 88 138 215 236 160 192 178 185 183 162 75 50 11 -13 -38 -36 -30 -27 -2 55 72
112 133 120 49 24 57 98 164 261 246 183 231 220 224 190 210 157 92 36 -1 -37 -31 -9 -0 6 21 45
61 55 51 30 44 104 133 131 209 213 169 197 227 215 215 330 263 183 138 62 45 43 42 33 31 12 -28
69 65 72 111 51 80 130 171 194 223 204 210 214 180 263 356 253 248 183 196 88 53 44 44 25 15 37
91 109 127 124 111 112 137 177 171 234 206 126 241 228 218 287 309 235 186 195 163 151 112 83 57 43 88
78 112 98 91 101 117 145 175 197 224 209 182 261 244 283 303 299 270 239 215 185 218 274 284 223 141 85
94 114 115 129 133 142 156 160 175 195 193 204 227 260 265 269 308 290 259 246 178 272 281 267 252 206 139
108 136 147 156 149 134 145 155 164 178 163 151 182 210 223 214 246 322 244 255 349 193 190 210 140 54 124
130 142 176 173 183 144 154 155 160 186 210 199 158 175 191 183 248 256 270 227 166 160 163 171 119 47 86
123 138 173 155 144 185 149 145 157 176 188 176 174 154 160 114 227 324 197 236 180 161 174 190 221 178 66
152 173 146 125 31 58 78 95 143 155 137 154 144 120 146 152 180 111 184 145 155 174 254 236 211 291 64

GFSFLT2_con_3kmhel_030.txt.gz
Helicity
205 165 158 127 154 135 117 107 99 25 43 33 43 45 22 25 34 43 50 43 56 62 49 53 67 62 66
204 173 154 166 145 109 100 124 154 101 48 27 28 20 12 16 25 23 27 30 35 44 63 61 67 43 49
208 190 193 160 144 163 130 160 174 92 62 61 53 26 -8 -27 -33 -28 -26 -3 17 25 30 35 39 39 41
219 199 185 174 161 158 123 164 177 144 170 146 32 25 16 -4 -17 -27 -32 3 25 38 49 48 40 35 31
189 168 144 113 129 164 187 147 207 211 219 197 188 225 216 103 67 27 -10 -23 -31 14 29 36 47 38 21
145 152 154 160 183 113 144 158 222 187 228 276 241 255 244 231 126 56 31 8 -17 -16 -31 -44 -25 -10 -9
134 149 155 101 80 106 160 201 230 247 196 282 224 260 237 212 112 68 42 17 -9 -10 -20 -38 -23 -1 -0
120 133 97 35 86 137 142 144 235 242 188 283 254 269 221 243 215 114 63 78 63 55 30 -5 -19 -21 -14
53 44 41 42 60 88 118 117 156 194 196 231 287 281 323 464 313 223 179 99 69 58 50 37 37 41 14
79 70 74 109 55 88 107 135 146 178 207 245 270 246 309 394 385 318 246 199 109 64 51 37 31 41 66
98 109 125 125 130 129 124 142 163 217 226 139 287 290 271 394 366 289 224 228 196 158 90 65 61 52 116
114 131 126 138 150 152 150 169 187 209 214 173 264 257 293 339 367 332 291 250 189 180 233 213 154 128 120
118 137 148 175 178 160 167 162 178 188 184 181 229 261 270 308 331 378 305 295 153 252 276 280 244 223 189
136 142 132 132 147 131 157 162 165 197 165 148 156 194 201 199 202 307 297 269 342 304 190 175 154 137 28
133 114 117 117 136 113 98 104 139 177 204 182 143 147 153 145 177 202 242 225 178 230 196 168 177 129 95
132 126 132 151 140 134 86 46 61 126 171 127 140 129 109 77 93 158 122 178 139 201 175 185 202 70 109
156 169 156 160 93 110 104 41 66 77 104 77 79 31 65 76 90 45 93 112 133 197 195 209 221 96 86

GFSFLT2_con_3kmhel_033.txt.gz
Helicity
198 143 101 82 80 75 73 83 118 70 22 11 8 17 21 23 29 29 34 43 43 45 33 31 44 59 61
175 147 118 79 67 84 120 140 108 74 45 33 19 -5 -11 -9 -14 -15 -21 30 43 44 51 47 19 47 47
181 190 131 107 130 88 82 104 94 55 83 48 31 36 25 9 -2 -15 -20 -22 -29 -35 35 43 43 46 51
214 175 151 118 116 107 101 105 104 112 167 99 88 81 54 44 28 16 11 8 -11 -23 -25 -16 44 40 34
205 147 120 110 99 91 125 130 125 123 184 152 155 214 200 108 75 38 27 33 14 -7 27 8 20 34 42
128 123 107 109 102 -16 142 96 149 117 130 238 179 214 208 189 90 38 26 6 -6 -7 20 33 15 -6 -17
100 102 109 118 -12 51 116 127 176 215 113 235 205 234 217 224 146 98 49 61 69 72 74 61 62 36 25
80 107 115 94 -58 79 75 93 188 203 111 238 235 249 261 374 223 116 143 110 84 82 89 93 99 73 51
38 49 36 -3 37 107 107 100 109 153 151 156 199 221 306 389 257 205 175 97 70 60 53 51 46 36 0
71 64 53 62 62 81 104 114 110 128 137 164 185 106 152 226 307 295 245 175 106 72 37 24 17 57 82
68 66 77 81 84 75 83 122 138 182 209 131 198 168 165 276 333 285 274 289 260 153 67 49 42 35 90
61 83 80 94 103 102 105 124 144 174 183 154 175 166 194 225 247 250 266 273 220 215 229 176 88 60 56
82 96 105 108 114 104 97 89 100 149 137 142 148 171 187 198 235 239 151 212 135 289 269 218 196 215 181
95 112 110 94 105 86 83 72 63 93 101 93 121 120 129 131 125 182 187 194 272 264 207 191 219 182 135
97 105 102 82 107 98 105 91 55 51 94 105 81 47 69 100 113 139 186 226 202 254 183 215 99 47 43
108 114 110 106 109 117 107 106 40 46 51 73 69 68 31 48 18 119 168 161 222 207 157 147 91 55 45
123 134 126 129 91 120 122 117 12 26 51 29 27 1 22 70 132 119 109 166 200 192 134 109 127 75 72

GFSFLT2_con_3kmhel_036.txt.gz
Helicity
203 181 166 134 110 110 113 98 117 38 31 32 31 24 11 -16 -16 -10 9 21 32 35 47 57 45 36 26
177 166 138 119 111 74 99 103 89 52 18 23 14 4 17 25 25 23 28 22 19 20 25 44 61 48 40
197 155 148 132 89 110 70 72 71 35 26 18 21 27 25 21 23 28 16 26 26 32 30 29 32 38 42
171 175 167 122 109 92 74 64 78 70 87 51 46 40 48 50 36 25 20 48 52 53 41 22 21 16 13
190 201 120 109 80 74 74 82 82 65 119 105 133 127 157 90 75 50 69 77 65 55 51 46 13 20 15
172 148 97 84 76 68 93 66 -12 78 98 149 138 149 180 166 99 74 27 24 43 55 69 76 72 49 18
126 96 82 69 87 96 49 -49 81 136 15 147 153 178 176 214 183 59 39 81 83 73 66 60 64 63 70
82 71 78 88 86 59 -38 -48 142 173 93 140 150 156 210 274 128 65 121 102 84 77 60 43 35 39 45
32 22 32 16 49 81 54 31 49 117 120 77 117 145 162 241 131 118 121 100 84 87 69 34 29 23 -0
49 44 41 46 33 80 77 51 59 79 113 79 98 73 51 127 169 198 150 104 77 68 24 11 21 12 59
53 55 52 54 63 77 76 91 78 135 162 62 109 101 93 74 139 181 161 169 162 148 60 78 70 46 88
56 63 72 73 77 80 75 92 124 154 149 95 151 112 107 115 136 150 157 185 192 188 201 229 193 128 71
77 84 84 85 85 86 83 87 94 121 138 114 86 -16 22 118 163 143 76 213 151 171 189 175 162 200 175
80 79 84 84 90 82 84 83 88 120 98 91 -19 -16 31 45 72 105 174 194 136 164 166 168 150 105 68
74 81 74 66 81 74 85 85 88 80 81 79 5 6 22 24 76 113 146 140 104 123 131 129 96 87 68
98 103 93 83 78 74 83 97 102 70 42 31 33 19 7 31 -18 100 138 133 108 118 88 84 62 78 79
108 108 115 115 63 110 103 108 98 71 12 7 10 -14 5 50 77 91 84 112 102 102 62 71 107 107 82

GFSFLT2_con_3kmhel_039.txt.gz
Helicity
211 200 209 198 163 139 130 123 113 61 27 25 33 31 18 24 18 -6 5 13 17 21 29 39 35 45 37
206 215 178 146 139 125 119 143 106 66 28 15 21 16 18 -13 1 29 34 13 25 25 30 26 34 33 31
229 195 178 153 135 127 115 113 126 65 22 23 24 6 -4 34 29 14 30 32 24 28 28 27 28 31 36
216 188 166 143 114 124 119 114 94 89 62 76 20 15 45 50 19 -4 20 33 37 13 4 2 9 7 12
191 170 154 120 111 112 105 86 91 92 110 131 101 151 147 96 57 35 46 24 1 -12 -6 6 15 23 12
158 152 121 117 110 98 78 75 109 91 87 59 117 161 170 153 71 36 2 -17 2 33 46 71 74 75 58
114 136 121 107 100 102 96 93 103 116 59 65 129 143 143 152 138 90 25 7 35 45 41 51 50 51 51
123 125 111 100 122 124 100 89 126 123 86 58 111 112 122 188 217 70 34 61 36 20 18 18 25 40 48
62 32 23 17 41 101 114 113 96 112 112 91 96 110 113 185 214 85 104 84 35 16 7 2 -12 -19 1
69 59 57 57 32 76 103 119 124 96 131 117 108 68 67 165 174 177 154 96 28 13 17 1 -14 13 101
81 85 80 82 83 78 77 112 131 166 182 98 128 96 133 131 149 185 143 122 127 94 63 40 33 42 65
86 91 88 90 89 87 80 104 155 198 182 133 198 165 110 79 108 141 139 112 137 139 133 108 110 67 48
95 101 102 112 102 96 90 95 92 130 172 163 186 158 150 45 62 136 66 94 111 127 191 137 127 114 128
108 121 131 122 117 112 104 94 96 135 123 131 127 102 105 31 16 81 51 64 162 198 40 168 132 136 117
122 135 135 126 128 118 131 143 133 67 73 127 103 112 97 58 39 50 29 93 122 34 35 83 163 126 97
130 138 136 136 129 131 128 127 120 129 109 126 112 53 54 47 -2 -47 38 50 72 72 71 70 143 155 91
140 145 146 146 97 136 123 118 126 130 131 90 7 8 43 89 141 22 -18 55 74 117 62 75 123 144 124

GFSFLT2_con_3kmhel_042.txt.gz
Helicity
197 177 197 182 159 149 142 138 145 70 50 37 37 47 39 26 25 25 17 25 23 27 34 38 30 29 35
197 195 209 175 184 165 155 137 130 61 29 25 16 28 15 24 25 18 29 9 24 26 26 20 19 33 44
218 220 201 174 171 155 132 127 120 61 31 15 24 15 22 27 26 19 19 19 11 1 2 12 13 10 10
230 205 175 150 139 146 132 120 112 101 62 45 38 28 39 42 27 24 23 16 2 -1 4 5 -4 -10 -16
191 167 147 134 130 125 145 130 118 113 90 160 117 133 135 55 61 57 30 13 -1 4 -15 -23 -25 -13 5
169 153 128 124 141 140 145 123 130 116 138 135 126 136 135 141 67 74 52 27 22 36 19 -36 -31 11 28
121 126 122 115 149 137 133 140 156 143 139 131 133 135 142 120 60 110 88 75 41 18 11 -5 3 24 24
112 106 110 87 91 113 101 119 129 128 123 136 157 135 107 126 126 71 116 91 69 60 33 15 -4 2 8
23 18 11 3 29 92 96 98 106 110 120 142 130 126 122 134 104 68 191 146 113 80 49 22 3 8 60
69 61 60 85 39 88 102 117 116 93 134 114 97 88 57 158 121 186 201 177 141 127 71 41 11 84 120
78 96 117 113 112 110 107 128 128 137 133 74 106 113 143 126 166 175 177 216 210 170 104 56 15 40 -11
100 110 117 126 125 134 128 129 156 187 174 140 170 138 135 115 123 149 161 163 132 145 104 37 48 16 1
105 119 124 142 137 131 127 134 158 178 172 151 172 169 192 144 72 137 100 115 72 35 119 62 136 100 50
106 119 127 125 125 136 137 135 136 162 158 143 145 153 149 163 68 90 75 67 91 82 58 107 141 47 110
127 141 142 134 143 138 145 155 158 96 53 101 104 129 183 134 85 89 68 102 86 58 34 11 88 124 137
151 157 160 159 155 142 142 136 139 134 85 111 112 82 98 88 63 39 57 81 93 49 22 27 104 80 70
167 172 177 173 107 134 92 72 78 156 169 149 95 40 76 115 100 43 2 123 74 80 52 43 52 102 50

GFSFLT2_con_3kmhel_045.txt.gz
Helicity
193 152 160 146 154 159 153 148 143 86 90 75 80 116 111 86 82 58 45 36 38 40 50 44 44 45 40
165 168 169 177 175 175 171 155 156 96 59 59 46 57 43 40 31 52 43 51 62 56 45 35 32 32 32
188 199 207 171 171 175 160 153 146 61 44 32 39 29 18 24 39 49 44 45 35 35 28 26 31 36 38
211 200 172 146 143 164 143 129 131 109 93 55 18 27 41 47 57 50 42 28 8 11 15 28 31 33 38
220 205 165 151 142 125 133 129 127 105 92 104 91 155 129 82 78 51 39 24 28 10 13 14 21 45 38
205 185 154 131 124 117 132 141 117 48 84 116 117 137 131 122 51 55 83 54 41 25 23 35 52 48 43
169 144 130 116 129 139 141 123 122 121 103 95 125 129 127 94 50 67 74 80 70 59 50 45 56 49 46
117 115 118 105 94 100 91 116 114 100 99 114 126 120 90 111 74 37 45 88 93 98 70 49 51 49 47
23 33 39 29 53 108 107 114 104 98 100 116 108 118 104 104 78 11 85 120 139 100 76 60 55 54 45
88 71 70 85 49 101 120 126 123 97 116 122 94 76 14 127 97 147 159 133 129 137 123 93 75 62 50
62 80 88 103 108 114 120 135 134 149 157 104 138 128 140 79 112 138 145 171 196 195 151 125 100 48 27
87 98 112 119 115 120 119 128 159 162 147 124 159 137 135 27 39 113 143 157 141 164 163 136 77 44 21
102 116 128 140 129 128 130 128 135 146 161 142 132 93 136 77 23 62 56 112 78 16 26 19 10 43 47
128 132 129 124 129 129 134 119 94 112 139 138 99 115 132 150 99 60 58 65 58 39 26 26 38 85 -39
128 120 121 126 138 136 140 141 130 62 58 104 131 160 188 130 60 94 83 81 73 58 32 37 21 28 12
133 145 158 158 154 142 138 139 120 33 54 78 41 51 100 113 111 152 132 111 113 97 49 20 59 68 29
157 177 182 195 140 165 149 94 86 64 118 98 65 53 100 158 124 90 25 83 77 87 75 78 65 151 49

GFSFLT2_con_3kmhel_048.txt.gz
Helicity
188 163 165 147 146 163 159 181 177 112 126 134 125 126 131 132 107 96 76 75 55 51 45 48 58 68 65
184 183 164 162 172 173 184 172 187 129 117 107 116 115 102 96 75 70 79 59 47 54 59 62 54 65 61
183 187 173 172 171 157 168 164 158 93 70 68 78 77 74 72 68 76 55 60 62 50 42 34 27 39 52
210 218 189 161 155 174 166 144 146 135 105 58 47 53 65 65 61 61 65 74 67 46 34 28 21 25 37
229 237 185 150 153 138 135 130 129 120 115 61 129 147 182 116 89 61 60 61 60 41 37 22 20 25 32
228 192 159 139 127 130 143 131 107 79 102 113 127 124 145 134 47 27 42 52 59 46 36 37 29 24 28
181 144 127 121 132 133 127 131 135 126 104 113 110 110 112 104 35 41 42 41 59 62 57 48 51 54 54
125 129 140 122 109 113 106 133 140 126 107 137 110 117 100 122 67 19 11 35 49 49 54 57 44 29 35
46 53 59 46 58 123 130 132 126 120 111 112 105 112 104 113 82 -0 39 57 51 60 55 44 35 42 39
87 67 71 89 57 120 142 147 137 93 111 129 100 77 9 128 79 175 147 94 46 35 35 42 45 68 55
56 81 97 111 123 131 141 163 140 168 159 102 151 130 142 143 123 137 157 145 147 126 56 45 47 64 75
76 94 115 127 124 120 122 134 165 168 146 132 184 175 172 90 40 91 141 165 153 153 154 97 51 53 49
93 112 127 133 120 124 134 144 152 156 156 144 144 82 136 113 76 62 60 137 126 95 89 108 46 38 26
115 125 118 120 139 141 136 117 111 124 133 114 87 111 89 165 134 87 96 164 139 55 35 17 2 -16 -30
121 124 138 145 152 138 134 118 96 45 67 70 89 128 171 140 72 136 107 86 109 96 35 83 70 55 35
124 155 169 160 149 128 112 91 85 97 92 99 73 31 53 84 157 165 163 155 162 127 79 58 125 99 22
160 175 175 184 131 158 150 134 141 135 159 151 132 100 95 148 149 157 142 178 117 87 86 66 100 126 31

GFSFLT2_con_3kmhel_051.txt.gz
Helicity
169 170 171 140 130 146 132 155 162 114 133 153 154 143 129 124 105 96 100 90 82 74 64 55 42 39 39
170 162 151 144 133 138 144 146 166 123 113 117 120 90 99 90 91 88 96 95 58 60 45 46 40 48 55
160 149 145 132 143 148 159 160 173 87 73 80 69 74 80 78 88 86 73 67 71 66 50 43 48 42 52
166 180 163 128 162 156 161 163 144 126 101 62 38 62 84 81 86 80 75 71 70 65 54 45 36 47 42
186 201 171 159 158 166 166 124 118 123 113 108 121 167 190 126 111 85 76 72 73 69 61 43 42 41 38
211 195 172 172 167 131 125 116 104 73 124 141 115 148 161 137 50 29 38 43 47 48 44 29 30 34 29
200 177 164 121 125 120 117 133 140 132 116 144 127 152 142 118 40 32 32 24 32 39 35 26 23 27 25
157 129 122 107 103 112 117 134 146 131 114 162 124 137 126 138 67 6 1 11 34 37 36 34 31 23 19
55 50 47 33 54 123 136 140 131 126 119 118 134 116 127 122 68 -1 20 37 48 53 44 35 21 11 28
84 62 70 87 64 135 156 168 149 123 129 162 148 117 61 142 118 149 128 73 41 36 42 4 -0 35 57
55 76 83 97 112 130 145 190 172 205 191 132 218 177 195 160 118 144 158 145 146 125 64 -13 -29 -7 41
69 82 95 103 116 127 130 146 183 193 170 149 195 153 78 25 52 105 171 198 189 169 162 104 11 -21 -14
73 89 111 131 134 148 156 153 166 160 134 106 104 84 121 130 124 110 27 194 159 127 118 115 92 80 7
90 97 111 133 139 138 147 134 131 133 128 118 104 123 151 172 143 157 175 189 196 108 84 57 49 42 -8
102 106 123 136 153 140 162 172 189 166 146 124 122 162 201 139 126 189 167 145 160 139 75 86 73 48 20
110 132 151 161 158 148 163 176 177 178 172 169 134 97 98 140 203 186 198 191 182 141 95 93 147 92 59
135 161 168 191 141 165 170 177 181 179 194 192 182 179 168 191 201 163 169 258 196 135 116 106 137 163 60

GFSFLT2_con_3kmhel_057.txt.gz
Helicity
159 121 105 97 103 107 102 94 86 66 69 88 104 96 89 78 80 75 74 70 62 56 63 67 75 73 73
152 121 114 110 110 112 101 91 88 68 70 106 113 101 79 75 72 65 60 59 58 71 78 64 56 54 48
105 107 128 109 95 85 78 81 89 74 99 102 83 69 63 57 56 52 52 48 49 52 46 42 37 36 32
144 148 120 97 93 88 99 97 121 112 88 54 38 41 38 52 64 54 59 73 66 58 51 43 38 34 29
139 141 125 95 95 110 114 125 115 86 74 66 81 93 114 105 83 61 72 69 67 66 63 54 45 43 34
147 131 112 115 136 139 129 131 131 47 61 68 83 102 101 81 46 45 35 41 47 46 44 46 47 44 30
152 144 149 127 127 118 83 69 67 89 66 82 91 81 69 80 46 40 33 33 42 51 51 53 52 37 29
138 115 105 93 71 55 44 52 70 83 70 117 65 85 81 95 64 0 10 34 35 24 7 -8 -13 15 31
86 67 47 18 31 60 66 78 85 77 80 91 97 92 72 85 54 59 72 57 36 6 -11 -16 -21 -25 -15
57 28 24 35 47 84 88 93 89 85 115 119 109 76 70 133 139 151 101 78 42 33 18 -4 -21 -71 -69
14 26 41 55 71 81 84 106 112 153 142 122 172 131 177 194 168 171 151 149 94 76 31 -1 -12 -33 -73
23 35 46 58 73 77 72 96 131 156 141 128 214 174 187 176 213 185 180 172 120 94 77 37 18 3 -7
41 49 54 64 68 71 73 80 106 139 144 116 161 168 199 233 253 227 161 147 108 87 86 73 44 6 -14
50 46 49 67 74 79 78 57 64 79 95 116 128 149 189 207 215 241 191 193 153 162 127 110 79 45 50
40 41 50 58 71 81 102 96 103 119 109 121 120 140 190 180 193 208 195 215 216 191 119 126 106 70 78
38 47 56 64 67 86 99 116 140 139 145 167 154 130 117 146 184 230 244 237 221 166 140 176 211 156 122
43 51 66 76 80 102 112 116 127 143 160 165 156 125 131 142 119 128 146 148 120 125 124 137 171 183 123

GFSFLT2_con_3kmhel_060.txt.gz
Helicity
331 286 238 202 183 167 147 100 91 66 48 62 68 69 56 62 65 68 62 53 56 58 64 64 73 72 79
265 220 190 168 150 150 133 108 110 79 73 80 73 69 75 68 72 69 56 45 37 42 38 36 41 49 61
209 173 171 138 112 104 119 113 102 68 87 102 90 91 79 69 63 42 33 31 31 37 42 52 58 58 55
151 135 116 123 132 124 130 112 101 91 96 85 78 63 38 42 38 38 45 59 72 78 71 60 60 53 51
122 136 123 124 130 135 110 109 105 105 125 108 94 70 73 66 57 52 67 81 81 84 73 66 67 71 72
178 148 132 137 139 128 132 135 135 78 90 50 72 74 77 68 41 48 59 72 75 66 66 66 74 81 89
173 161 151 152 185 117 85 73 56 46 46 53 51 60 57 54 35 50 53 51 54 59 62 71 66 66 67
168 138 110 86 77 50 32 33 46 50 54 82 57 60 60 60 51 30 26 45 64 67 56 52 49 49 58
75 44 20 7 11 45 56 67 76 67 69 69 58 68 97 114 51 45 73 59 59 51 44 42 39 55 85
15 5 12 27 48 70 87 107 101 88 106 116 86 64 60 92 74 97 79 66 49 52 42 50 43 77 111
1 22 37 50 70 89 102 126 128 152 108 144 143 103 145 161 124 133 122 109 104 106 49 46 58 90 116
21 34 47 55 65 77 86 104 131 147 117 134 209 161 171 172 185 127 136 133 108 107 98 49 30 30 50
30 36 42 45 48 56 75 91 107 138 143 131 178 183 205 247 233 175 115 104 89 64 70 86 64 38 29
38 36 34 42 53 60 64 68 76 79 117 151 169 174 183 188 185 192 148 147 136 142 111 95 73 54 51
41 37 37 41 49 61 74 83 97 88 85 112 135 161 196 180 179 178 135 149 137 122 107 138 134 134 123
40 38 39 44 49 55 74 95 103 107 112 118 122 133 136 133 159 180 168 150 134 88 85 89 111 111 116
44 41 42 47 51 56 63 81 96 110 123 133 138 148 154 142 113 98 93 115 77 69 83 88 78 101 90

GFSFLT2_con_3kmhel_063.txt.gz
Helicity
228 269 269 299 233 180 135 155 146 102 91 91 77 73 70 51 48 66 70 78 86 85 87 84 90 73 85
263 256 210 169 167 159 133 119 117 97 91 89 75 71 65 56 63 61 69 67 57 57 57 57 58 63 64
247 186 165 140 136 118 124 125 126 83 72 77 85 87 78 72 59 52 48 42 45 50 51 56 51 49 55
161 143 128 119 123 143 151 141 140 121 122 107 89 74 60 57 40 33 31 39 53 62 64 59 55 52 43
100 88 95 110 148 164 167 158 139 117 117 105 100 84 73 42 41 39 55 75 78 75 70 61 42 34 28
122 127 160 202 199 207 201 137 82 60 84 52 83 82 87 92 42 49 60 65 66 62 51 42 34 36 48
155 181 177 182 156 99 52 39 41 71 78 91 108 96 98 84 40 38 45 44 42 50 48 49 41 42 39
159 128 104 53 33 44 51 56 65 76 84 119 99 90 90 96 60 24 26 45 51 43 37 42 52 54 49
70 23 -7 -13 6 32 58 65 70 75 94 99 104 94 83 102 72 12 57 81 67 60 51 57 69 59 87
38 16 11 24 28 59 63 71 78 85 103 128 144 93 75 149 122 132 101 62 38 44 47 50 55 126 128
30 31 35 44 59 70 80 98 85 113 125 116 168 139 178 198 167 151 106 98 97 92 60 41 48 64 102
49 46 53 55 64 74 70 78 91 100 90 119 215 175 193 179 166 122 111 107 90 86 89 52 27 4 -33
56 58 51 55 56 58 64 81 84 102 109 131 186 185 223 247 232 154 93 99 98 93 72 75 72 85 71
61 61 60 58 65 66 63 66 68 71 87 101 135 187 214 235 264 241 191 182 163 156 138 144 147 154 174
59 59 63 61 66 68 66 70 81 74 68 92 124 158 222 240 245 215 184 195 197 148 138 151 125 135 144
56 55 56 59 59 65 67 71 76 75 82 87 100 133 161 210 181 227 172 137 124 99 65 54 66 88 103
54 55 53 55 46 68 65 77 86 78 87 91 101 122 125 139 176 149 129 101 90 118 103 99 89 90 79

GFSFLT2_con_3kmhel_066.txt.gz
Helicity
283 219 229 239 214 173 150 127 120 87 99 87 91 116 100 87 79 69 76 88 88 94 99 100 99 105 128
198 212 194 145 154 149 125 120 113 98 95 97 102 94 83 75 77 83 83 78 78 83 91 93 88 82 87
163 165 145 143 115 115 116 120 116 99 113 113 132 98 90 96 83 78 69 67 67 61 53 45 41 40 43
114 127 140 117 111 111 136 144 144 159 147 126 84 74 60 45 37 38 44 48 51 52 48 43 40 35 31
110 106 107 121 129 150 171 175 139 104 76 64 40 30 54 56 60 57 64 65 62 55 45 35 26 22 21
92 129 145 150 172 178 157 118 112 45 33 81 80 97 113 113 57 44 50 53 49 42 32 20 13 6 7
142 144 155 168 154 129 89 83 90 79 69 66 102 99 107 91 49 37 37 45 50 46 39 33 25 16 15
164 171 155 147 118 72 49 50 57 65 64 100 101 90 66 114 69 12 29 56 71 73 63 49 50 42 28
110 93 76 39 22 62 64 77 79 72 81 80 68 67 65 76 60 31 70 83 66 52 43 51 49 46 62
125 121 80 41 18 59 78 85 73 84 57 77 87 40 20 68 101 98 100 80 57 52 43 46 54 95 92
115 106 70 52 50 60 64 89 74 81 76 66 100 62 98 122 138 159 96 108 104 66 46 49 45 52 85
113 94 72 61 56 67 64 57 57 61 57 73 127 96 109 113 134 156 134 116 126 132 106 45 26 16 14
99 79 72 59 53 56 61 63 64 71 71 73 106 111 148 167 186 171 122 139 115 102 158 142 119 120 96
84 71 60 61 60 69 70 71 67 73 101 85 108 129 122 157 197 209 178 172 161 170 171 152 157 165 162
77 63 60 59 60 66 69 68 72 65 73 79 93 117 157 170 162 180 162 187 220 218 149 131 140 139 149
75 65 62 61 59 60 70 77 73 79 80 78 85 93 106 145 141 181 169 199 217 199 81 0 69 91 97
64 68 66 64 37 67 77 80 74 79 92 86 91 82 46 65 129 69 140 165 159 151 188 187 130 135 108

GFSFLT2_con_3kmhel_069.txt.gz
Helicity
217 239 221 219 159 197 164 146 134 89 88 84 88 75 84 88 87 82 83 89 88 92 97 100 104 115 127
184 112 142 145 182 142 122 122 113 91 69 88 91 79 96 110 92 89 98 92 93 89 91 90 78 69 70
91 137 162 171 153 152 137 103 108 94 93 126 105 102 98 88 79 67 60 53 49 47 38 31 32 36 42
131 151 165 162 167 143 129 134 154 153 146 110 89 86 61 31 35 47 58 64 63 58 51 47 44 40 40
138 136 134 122 108 139 151 173 167 147 142 102 39 27 35 40 44 53 63 65 61 55 50 43 36 30 28
86 78 110 147 176 183 180 181 169 105 76 73 47 56 53 64 47 50 59 65 61 54 49 45 37 32 27
118 145 162 180 184 158 145 145 147 79 67 106 60 92 54 67 40 37 44 52 68 78 73 57 37 35 30
142 138 134 129 129 128 115 105 80 72 60 94 73 85 57 99 34 48 67 95 113 107 96 76 58 51 36
109 96 91 86 90 122 115 122 103 76 64 76 75 69 71 61 78 104 129 90 82 97 105 76 59 49 39
123 121 114 96 69 79 80 98 84 98 73 83 89 47 46 51 74 106 100 81 73 75 80 80 65 68 58
105 104 104 107 96 72 56 79 78 75 63 70 87 71 41 68 74 115 109 140 157 125 102 86 60 52 63
104 104 105 93 78 67 63 53 60 59 64 70 85 78 77 92 103 92 117 132 143 160 161 119 78 50 38
99 94 93 73 67 57 55 53 55 61 67 76 83 72 89 108 118 108 79 112 84 70 160 176 174 171 135
94 83 70 74 76 69 63 60 51 62 75 72 64 79 101 109 116 110 92 91 98 109 169 181 168 185 197
88 82 71 67 69 67 65 62 55 53 56 91 77 97 120 111 103 113 100 97 119 165 134 122 116 137 142
77 71 69 70 67 73 78 74 60 67 66 77 86 91 105 116 107 115 100 135 155 162 166 167 143 124 146
66 64 57 62 43 52 63 79 79 81 85 88 99 81 68 72 109 50 88 129 72 87 141 192 132 102 133

GFSFLT2_con_3kmhel_072.txt.gz
Helicity
207 193 214 206 246 213 149 186 132 115 108 121 92 85 83 69 71 71 77 89 86 90 97 103 96 94 110
150 148 159 147 162 148 140 137 125 136 118 85 72 62 73 90 96 94 97 94 81 64 44 37 35 39 41
165 123 103 150 147 143 153 149 121 93 88 88 103 103 102 101 92 78 67 42 33 34 35 34 36 44 54
163 148 151 153 160 160 136 118 115 135 127 118 102 106 119 106 50 24 28 34 34 29 26 28 32 37 39
153 155 165 125 105 126 153 159 151 148 141 146 144 124 70 32 33 35 38 37 36 31 30 31 32 36 39
99 111 132 157 182 186 197 198 172 148 153 151 85 84 50 52 39 39 41 41 35 36 36 37 40 41 43
148 155 173 171 173 173 164 158 149 143 121 149 77 86 71 68 42 39 43 53 70 80 94 72 49 47 46
131 132 130 128 132 130 133 134 136 114 76 146 88 100 80 65 89 96 114 130 119 88 70 59 63 54 40
118 101 95 84 95 154 152 172 171 132 68 99 101 79 74 87 106 139 117 106 89 78 72 66 63 57 65
108 109 109 99 107 105 119 149 141 142 76 100 76 62 85 77 88 78 88 90 75 76 67 62 69 100 98
93 93 96 103 106 105 89 100 117 102 79 90 73 73 67 55 68 116 113 140 151 120 77 62 58 73 91
98 99 97 93 84 71 65 65 73 82 72 84 90 103 88 80 91 100 139 143 125 139 123 70 59 52 50
98 93 94 83 73 66 67 64 68 81 82 103 96 81 94 97 102 102 88 75 112 85 128 133 136 127 113
100 87 74 73 73 71 73 73 65 79 87 93 92 88 67 86 99 101 96 75 94 101 113 122 129 144 156
103 95 79 67 61 66 63 56 58 58 57 80 102 110 96 83 84 113 103 76 77 96 102 75 89 100 138
96 87 77 69 63 69 68 61 56 70 78 91 91 111 91 83 105 91 98 106 113 131 105 53 40 74 127
104 95 83 76 57 70 70 71 67 88 95 106 124 125 76 53 92 67 84 122 120 105 86 93 50 75 117

GFSFLT2_con_3kmhel_075.txt.gz
Helicity
141 156 179 204 233 220 198 168 125 137 151 99 114 113 110 108 113 80 80 62 56 68 70 76 88 98 93
125 134 152 175 144 158 141 105 106 110 100 91 105 102 95 82 86 94 80 72 72 76 87 83 66 47 34
95 87 120 137 124 149 146 125 114 99 104 101 101 100 107 89 75 79 83 105 105 86 54 44 44 40 36
114 122 116 108 126 155 123 99 84 90 98 119 118 112 100 106 116 122 117 82 49 36 36 36 28 24 26
88 100 107 113 127 129 149 151 132 133 134 131 137 134 126 124 118 87 48 34 35 38 43 36 26 19 18
144 145 130 137 144 150 159 168 151 157 158 154 134 153 132 110 56 33 38 47 49 41 35 36 31 21 19
139 139 137 136 145 143 138 130 113 121 132 154 148 157 93 62 40 35 40 45 47 62 75 61 46 35 17
118 114 112 110 121 122 119 125 117 109 117 151 122 121 73 49 60 70 112 143 117 91 69 51 45 36 21
120 109 105 98 90 129 98 127 115 103 96 116 101 88 73 77 105 134 149 142 89 77 75 53 36 24 34
113 110 110 101 109 94 106 119 120 119 83 113 105 99 118 97 110 107 95 90 94 74 58 43 41 64 69
102 105 108 113 111 107 98 102 109 100 69 77 86 89 94 86 75 96 114 112 116 106 67 57 56 56 81
107 113 116 111 94 84 73 74 71 68 56 78 89 97 97 66 61 76 124 143 144 136 148 93 51 48 42
112 117 119 99 80 78 74 65 65 64 67 78 85 83 106 75 39 39 56 101 137 129 112 120 120 123 82
121 116 110 104 100 92 90 83 73 82 69 71 81 90 79 86 63 40 67 65 87 88 97 105 115 122 117
129 124 115 108 107 99 92 86 83 98 112 101 78 103 115 95 69 79 83 75 83 61 94 80 86 103 112
135 128 121 116 108 108 103 99 83 93 103 116 112 92 115 76 91 107 95 80 98 111 118 95 71 87 106
129 130 125 116 95 110 115 118 100 108 118 133 122 115 79 85 76 50 116 108 130 104 112 96 94 102 98

GFSFLT2_con_3kmhel_078.txt.gz
Helicity
127 102 103 114 113 118 136 159 170 172 150 119 110 91 81 102 123 120 102 100 79 69 71 70 75 78 86
106 111 85 103 109 112 77 108 80 89 99 88 92 104 93 88 89 121 95 77 73 70 72 83 89 103 109
91 76 68 105 97 88 96 93 72 57 76 90 88 96 93 113 103 93 74 82 103 120 103 105 111 103 71
76 70 75 91 87 95 98 95 95 103 111 115 122 126 128 127 125 124 119 106 106 108 94 72 56 44 39
89 101 112 119 122 117 126 130 138 137 118 115 123 117 114 98 98 96 96 99 92 66 36 41 47 44 44
94 111 112 117 120 124 121 128 120 123 123 118 121 120 116 113 96 86 80 56 36 36 39 38 42 41 44
103 105 113 113 127 128 125 115 102 90 87 96 99 88 93 91 61 31 21 31 36 44 62 56 45 38 39
110 101 102 101 104 106 101 94 83 84 87 114 103 102 69 42 33 45 71 130 127 95 71 53 43 38 33
106 107 107 95 102 108 102 119 102 106 93 102 89 67 54 57 82 130 118 132 118 87 59 49 37 32 40
74 83 97 104 121 110 109 108 108 121 84 94 83 77 96 67 90 86 78 77 82 67 52 44 41 47 49
73 83 99 115 122 121 111 116 121 109 76 62 75 77 73 64 66 84 87 95 82 67 72 75 65 63 65
86 89 100 118 118 110 98 91 90 94 73 84 75 88 83 62 50 88 85 95 119 107 117 106 85 63 48
90 91 102 106 105 103 105 84 80 81 75 80 83 73 86 82 72 62 39 92 145 151 149 107 104 115 80
105 99 109 111 119 117 117 108 93 101 77 67 71 79 76 88 86 74 81 92 102 98 106 109 132 120 111
121 117 120 125 124 123 117 112 108 121 124 117 90 76 89 84 87 109 106 112 115 83 99 90 92 110 116
130 128 124 126 122 130 129 124 108 116 119 129 127 110 96 70 76 89 86 98 77 78 107 75 55 81 100
137 135 132 128 109 133 142 134 125 126 118 131 135 138 129 113 93 58 116 124 124 118 127 116 90 77 79

GFSFLT2_con_3kmhel_081.txt.gz
Helicity
115 84 71 70 84 98 116 130 95 139 131 120 81 70 71 98 97 79 77 67 82 72 66 71 76 80 81
83 73 72 84 81 88 89 86 98 103 102 84 83 93 90 78 56 67 81 68 69 81 84 77 87 99 118
77 69 70 63 62 61 68 86 91 91 84 81 82 84 84 76 105 89 82 72 76 105 116 110 110 119 127
74 74 78 73 74 85 103 109 104 104 105 111 114 116 113 115 109 110 110 108 98 99 94 97 91 91 87
92 87 87 92 97 90 98 93 104 115 110 109 100 87 84 90 94 86 87 88 83 78 73 67 57 54 52
87 96 101 93 88 94 96 92 85 106 94 78 89 94 102 101 92 76 60 48 39 27 24 23 30 47 59
89 92 92 82 82 85 90 88 86 85 71 77 75 79 84 83 75 48 23 12 15 17 21 37 48 43 40
85 78 75 68 67 74 80 79 72 80 69 81 91 96 69 53 36 23 29 64 77 67 62 49 42 39 35
79 87 73 67 61 66 69 77 82 93 88 93 108 103 88 90 71 108 118 67 63 66 62 50 38 30 33
65 69 79 89 104 84 83 87 92 92 99 96 112 112 110 78 82 70 57 54 55 61 43 23 21 33 38
63 68 75 85 91 95 94 103 105 110 110 108 110 104 98 84 62 63 49 75 67 53 44 50 48 47 54
68 73 80 91 96 99 89 92 93 96 92 97 99 96 87 72 68 77 68 47 55 72 54 53 65 55 40
71 81 91 101 96 92 95 90 89 96 95 91 88 74 69 72 74 70 78 95 115 83 136 112 80 78 65
77 88 89 88 92 95 95 99 97 109 104 94 89 88 72 67 63 79 78 80 92 97 92 84 89 95 76
88 92 91 94 96 100 103 102 101 112 124 123 104 86 84 86 88 90 85 74 75 74 84 97 91 89 83
98 94 90 94 98 104 111 112 106 106 108 117 123 122 110 73 74 73 60 67 77 77 73 75 82 82 66
98 95 96 100 98 106 111 116 106 106 104 109 122 140 123 103 93 47 76 67 91 101 96 83 75 89 59

GFSFLT2_con_3kmhel_084.txt.gz
Helicity
88 71 59 45 55 76 88 101 116 148 125 125 135 126 65 38 52 74 90 96 86 65 40 36 43 55 52
77 63 56 40 44 60 63 51 45 68 77 96 99 87 74 95 104 103 81 77 88 95 107 107 95 94 102
65 65 58 54 63 70 83 84 91 94 101 118 133 127 137 140 132 114 109 109 102 108 119 123 118 107 105
85 80 70 70 77 80 80 94 98 103 111 119 125 128 130 132 129 123 118 119 111 104 95 100 102 91 96
90 84 77 79 90 83 81 78 88 100 98 107 113 106 98 90 91 91 98 95 98 102 108 104 83 74 83
84 84 84 84 84 89 83 80 81 95 91 83 92 90 89 94 112 105 106 99 92 83 67 54 43 35 30
83 82 80 84 85 74 76 69 68 77 67 69 79 80 85 81 84 87 79 65 55 45 31 14 15 27 32
87 81 81 70 67 64 57 55 55 70 70 75 84 85 83 77 79 69 60 67 78 70 44 50 52 43 32
79 78 64 55 48 54 56 59 65 79 86 91 105 98 97 97 94 133 125 117 76 60 56 62 58 44 35
51 54 54 76 68 55 67 72 83 82 104 99 109 126 125 113 93 80 66 51 46 46 48 44 37 41 42
59 59 59 66 67 77 86 93 89 97 125 110 115 119 130 125 99 84 71 72 72 67 50 45 46 50 55
60 60 62 69 79 80 82 80 85 94 101 114 113 126 124 115 111 106 94 75 71 69 66 62 43 38 30
61 64 72 83 81 80 73 75 80 90 95 109 100 101 107 112 108 93 99 111 106 91 76 68 91 82 64
70 74 83 83 77 82 82 87 90 101 112 109 101 98 103 102 92 87 78 93 100 102 103 88 75 72 68
82 80 84 89 81 84 87 92 97 102 110 122 114 96 92 95 99 91 83 86 87 90 94 100 92 75 71
87 83 90 94 90 91 98 104 104 107 110 121 128 124 113 98 87 90 83 81 88 91 87 93 100 88 82
93 91 95 95 93 99 107 110 110 106 111 122 131 137 139 126 107 92 100 101 107 103 100 100 94 96 76

GFSFLT2_con_3kmhel_087.txt.gz
Helicity
95 61 53 42 33 42 51 67 69 99 109 101 125 138 134 138 107 89 103 115 120 91 65 44 47 58 69
60 55 55 41 41 52 67 79 69 93 93 106 107 99 94 83 84 92 117 145 155 117 127 116 114 140 140
65 57 53 42 62 65 80 82 76 81 91 107 116 121 141 146 150 162 169 169 160 160 160 155 142 131 118
76 73 70 72 77 98 91 96 102 98 87 97 102 106 120 132 145 163 172 168 161 147 154 138 136 141 136
82 96 86 90 109 96 92 87 89 93 95 88 102 99 102 115 123 130 128 116 113 114 116 126 137 140 136
84 95 105 97 93 101 91 93 88 81 77 72 78 75 87 95 107 109 115 114 111 112 112 113 111 104 97
103 116 100 102 90 77 89 79 72 69 66 70 72 67 75 73 77 73 76 82 88 99 109 92 67 54 47
119 112 109 79 78 74 64 60 56 70 68 70 76 71 74 67 76 66 72 94 112 127 114 89 72 70 58
111 105 84 73 73 67 74 76 73 84 85 85 83 74 68 75 84 110 113 116 123 100 91 76 82 80 67
68 64 55 81 68 65 79 82 93 84 93 100 97 100 98 94 89 94 100 85 86 73 68 67 63 81 79
61 69 65 74 66 88 96 94 91 90 106 105 95 96 106 100 105 105 102 102 103 110 89 71 64 69 98
72 81 82 86 88 93 102 96 84 84 82 106 104 114 116 98 102 127 125 107 100 98 79 63 58 55 49
84 94 97 113 117 92 82 77 82 78 83 100 106 97 102 113 111 109 113 134 103 105 103 92 88 84 98
99 112 121 109 90 93 93 91 93 92 95 102 108 115 102 104 102 102 106 116 117 108 109 105 98 98 88
121 120 115 113 104 94 89 94 101 100 115 124 118 111 103 94 98 110 117 116 110 103 110 105 103 106 100
136 132 126 126 117 111 104 103 102 112 124 131 134 134 116 100 131 128 118 117 125 113 111 116 111 125 127
150 144 135 130 105 122 110 108 108 112 123 139 151 157 141 117 110 119 159 149 132 121 119 129 126 109 112

GFSFLT2_con_3kmhel_090.txt.gz
Helicity
138 91 73 57 34 41 56 66 80 84 83 85 103 110 114 115 114 107 84 92 102 116 134 102 60 98 79
90 63 47 26 23 38 57 75 77 87 105 117 111 99 95 100 104 101 104 112 114 118 147 151 122 124 114
67 51 47 36 46 55 63 66 62 95 104 114 116 117 129 121 146 138 120 107 117 154 176 178 165 146 129
71 66 67 54 81 91 95 90 95 98 88 85 94 99 104 108 114 119 119 122 129 129 143 146 140 126 122
73 84 84 92 92 85 98 84 98 88 85 85 85 83 85 107 113 110 102 94 91 89 93 104 116 134 143
85 80 81 81 93 86 90 96 85 80 78 60 67 75 73 76 85 84 85 83 81 86 88 89 100 114 104
98 96 93 81 85 92 88 82 77 49 63 71 61 70 55 64 70 64 61 63 64 72 90 91 81 71 64
114 108 101 88 82 76 68 68 64 65 61 74 62 59 56 68 71 65 71 75 85 104 106 92 99 82 70
108 101 98 90 94 84 88 87 78 75 77 78 75 64 61 67 71 81 82 90 93 94 88 85 77 74 91
78 83 85 86 97 89 78 83 77 81 75 90 87 89 93 84 80 75 79 81 85 84 79 76 70 86 87
72 69 74 73 76 87 86 86 90 87 90 89 89 85 105 100 96 81 82 91 92 93 91 81 70 74 98
73 72 73 73 90 104 99 95 93 81 81 91 92 102 112 104 102 100 84 75 89 86 87 77 69 68 55
81 81 90 100 122 112 74 76 84 82 79 87 106 91 111 119 104 95 89 113 83 102 119 107 98 92 88
88 88 130 123 103 87 97 96 91 89 78 82 93 122 121 113 89 87 98 100 105 108 107 97 97 91 92
115 125 131 123 100 82 99 98 94 96 93 90 98 115 119 114 99 107 101 115 125 113 105 106 98 102 108
120 129 133 129 109 101 118 120 104 96 93 96 116 133 120 89 78 111 115 111 127 107 109 111 93 124 141
147 144 142 144 117 131 118 124 127 126 111 102 116 138 127 109 109 79 146 162 150 130 127 140 126 98 119

GFSFLT2_con_3kmhel_096.txt.gz
Helicity
228 179 141 111 101 96 73 71 73 77 71 84 71 61 59 99 129 139 144 173 172 146 119 99 96 92 67
194 175 144 117 109 79 68 73 80 85 93 101 99 84 73 80 102 110 114 130 125 129 126 109 110 102 78
182 170 142 99 90 77 83 96 97 109 110 109 105 106 121 127 124 127 120 116 138 149 164 166 140 116 114
157 134 97 87 85 84 93 100 91 91 100 107 98 95 86 91 100 105 110 118 122 118 115 117 114 102 97
141 106 90 100 89 88 91 85 86 81 72 78 68 67 75 74 72 70 69 68 74 75 77 79 80 80 85
102 91 88 88 104 94 101 88 70 74 73 66 62 63 55 50 53 57 55 56 61 67 70 71 71 80 94
74 69 88 73 98 101 86 92 82 70 66 71 65 62 56 53 59 60 46 52 61 73 86 95 91 76 69
75 77 75 84 78 72 83 107 106 83 67 75 66 61 60 65 70 69 68 56 73 93 96 99 93 94 103
99 91 85 82 81 117 111 113 85 68 77 74 73 71 72 78 85 88 83 89 85 89 95 93 91 76 74
117 123 113 82 74 74 77 85 83 84 57 83 83 80 91 93 97 98 95 109 114 111 115 102 87 96 95
86 91 95 88 89 83 63 72 86 74 57 86 87 98 110 102 97 98 111 109 103 107 102 97 98 90 79
87 80 78 77 68 71 81 83 72 63 81 95 90 105 121 125 118 125 103 83 101 111 108 98 98 82 86
87 82 79 71 93 103 104 97 84 69 82 86 95 105 118 115 121 115 108 107 78 108 126 122 106 96 92
96 92 100 107 108 109 117 110 106 84 64 62 74 107 102 99 104 114 117 130 136 130 92 81 91 79 94
109 116 114 121 120 126 134 136 124 101 88 96 69 79 92 107 106 116 126 107 114 129 106 86 109 97 91
122 120 126 127 124 138 149 147 141 123 113 93 87 103 97 77 74 110 102 89 104 122 119 97 101 119 116
127 127 142 140 116 135 147 145 145 160 114 123 116 119 109 117 99 54 106 109 133 132 120 107 74 91 116

GFSFLT2_con_3kmhel_102.txt.gz
Helicity
208 227 224 242 210 179 163 111 132 120 78 63 57 62 62 92 137 197 224 259 270 235 254 264 202 184 128
186 209 207 190 171 154 129 125 138 98 81 74 78 72 40 50 105 110 153 160 161 161 173 156 192 163 113
189 209 200 197 198 160 140 144 134 102 92 104 94 93 82 46 108 117 144 152 159 183 201 216 223 210 188
201 201 191 169 170 149 129 118 90 81 96 116 129 124 106 112 114 109 122 124 126 127 149 143 145 145 148
180 179 170 157 140 134 114 89 71 71 70 92 90 88 92 115 96 97 111 117 124 130 133 138 132 119 116
156 139 127 121 125 113 115 109 68 63 77 77 79 77 79 88 74 80 88 85 86 89 96 99 100 106 116
112 113 90 88 117 113 102 99 84 56 71 70 77 76 75 72 68 70 69 73 77 81 93 89 89 93 94
88 73 67 43 82 75 101 103 98 82 76 69 77 72 74 63 80 74 53 66 71 83 92 92 95 95 104
91 65 49 49 67 125 123 122 82 64 72 69 70 76 67 70 96 82 80 82 91 97 91 89 92 96 112
97 110 90 73 60 64 89 109 85 75 60 72 73 69 70 76 84 90 91 99 109 99 106 91 89 101 107
60 72 89 86 71 76 79 93 94 76 48 79 73 76 81 67 69 82 87 92 104 114 108 99 91 86 90
55 34 52 70 68 99 99 93 80 62 59 82 74 80 88 76 65 77 90 99 107 112 104 95 82 80 72
78 53 53 65 98 119 118 107 108 104 90 84 89 90 90 86 80 75 97 101 107 99 88 95 110 114 101
51 58 75 90 100 95 84 96 110 100 92 82 90 99 104 90 91 83 96 119 106 100 100 105 97 88 80
56 95 58 103 91 93 110 128 113 103 107 101 88 83 90 104 87 61 84 92 96 91 93 84 65 58 68
68 69 73 80 92 127 139 125 130 130 124 119 139 136 122 93 75 89 85 81 99 95 91 89 82 86 78
73 83 104 123 114 139 139 145 139 137 133 150 158 166 149 129 125 65 88 78 107 100 95 94 101 116 87

GFSFLT2_con_3kmhel_105.txt.gz
Helicity
186 185 174 180 200 208 190 186 132 80 78 82 77 65 83 102 143 265 336 420 323 273 240 214 215 206 189
175 195 183 179 184 195 186 179 143 103 105 81 65 66 66 74 96 155 213 229 244 275 288 209 199 201 152
181 184 190 205 222 199 181 172 166 149 161 120 70 69 65 28 92 110 146 103 124 162 220 199 177 199 173
174 181 185 181 194 180 155 135 117 107 109 114 124 116 103 103 120 140 140 144 116 130 156 180 192 184 198
177 180 168 167 150 143 147 122 104 73 63 81 81 85 88 93 98 106 101 92 80 94 106 119 132 127 122
162 154 139 135 139 137 144 125 81 57 63 71 73 77 76 78 71 86 84 83 85 86 91 100 104 116 140
131 128 126 111 130 122 103 92 77 50 72 75 65 64 71 70 74 67 62 73 71 70 74 74 84 94 96
101 95 84 84 80 86 77 91 101 73 63 68 68 64 65 58 85 67 56 62 63 73 88 99 91 85 77
94 87 76 68 76 91 91 92 84 70 60 64 59 66 59 60 87 88 58 69 79 68 79 81 81 94 96
91 123 108 67 65 55 65 83 76 47 47 68 67 68 56 62 75 88 92 67 62 68 70 72 84 90 89
79 71 72 54 62 61 54 48 56 72 51 87 63 65 64 55 57 57 61 70 80 95 96 92 81 81 90
84 71 57 47 62 64 64 67 72 81 68 65 80 65 64 56 46 54 55 63 69 74 84 87 75 61 63
91 54 37 46 59 75 90 99 119 98 75 72 91 101 70 56 55 65 74 57 67 78 85 85 89 95 89
64 62 65 63 66 68 65 94 91 75 76 98 91 84 91 81 83 85 78 78 70 79 80 89 97 94 88
60 61 53 57 67 76 98 97 73 75 91 93 84 86 87 88 91 81 78 74 73 104 92 82 77 75 71
59 65 56 57 77 90 94 79 81 86 106 100 107 111 102 76 74 95 93 88 77 85 90 79 78 71 69
38 48 54 64 68 71 90 89 100 105 104 122 131 134 117 111 126 67 106 116 102 80 85 81 89 97 91

GFSFLT2_con_3kmhel_108.txt.gz
Helicity
187 170 161 163 172 169 175 194 177 121 77 43 67 89 101 113 113 215 287 214 59 99 125 184 257 230 177
169 166 170 164 171 196 192 214 189 141 72 54 75 78 75 84 80 171 279 377 476 359 276 235 214 159 179
169 176 186 191 201 204 193 200 182 156 144 129 96 83 61 47 43 96 130 259 335 408 261 220 215 180 154
163 180 175 169 178 179 168 159 134 121 123 116 102 101 83 91 68 104 173 158 188 201 241 277 218 172 167
157 179 171 168 156 168 174 151 110 91 77 75 57 50 66 78 91 103 114 138 104 113 97 113 148 167 171
150 158 153 149 149 160 175 156 119 79 61 60 52 49 59 72 87 95 105 103 102 86 86 111 126 135 144
120 119 134 128 151 138 134 136 120 81 44 51 52 55 54 57 81 75 77 87 82 85 91 96 101 114 117
99 100 97 106 114 103 114 138 110 68 66 50 54 57 62 60 71 61 54 64 67 72 65 74 94 88 86
108 87 79 83 79 95 119 110 70 42 53 59 56 61 59 53 61 81 42 51 57 63 75 85 85 86 79
88 104 95 105 95 68 63 66 59 51 54 74 52 46 56 51 60 76 80 75 86 74 70 67 71 78 80
77 80 89 85 84 66 59 51 54 51 29 58 60 62 102 89 56 63 64 68 74 94 92 68 61 77 81
68 70 81 70 59 63 64 70 69 44 32 76 68 71 93 103 65 53 46 55 64 63 66 67 67 62 71
70 70 64 68 61 60 63 71 84 83 85 83 79 78 91 60 69 76 70 42 53 60 58 65 71 79 78
75 67 61 56 47 55 69 72 87 82 101 99 79 75 77 69 66 58 52 54 56 67 65 67 75 79 82
78 78 65 71 71 69 86 80 90 76 89 78 75 85 85 87 79 78 81 86 89 84 76 66 64 74 78
67 61 49 54 66 74 83 85 80 81 70 70 82 91 84 62 71 95 88 90 96 87 79 74 50 78 79
67 63 64 70 67 64 76 80 69 75 77 98 98 103 90 100 105 40 113 112 118 105 106 103 84 91 78

GFSFLT2_con_3kmhel_111.txt.gz
Helicity
196 205 175 162 173 166 161 161 162 157 128 117 75 54 74 89 97 121 226 179 38 30 31 54 91 251 176
209 172 173 183 181 166 157 182 193 196 145 99 70 61 75 63 73 118 219 335 230 114 125 181 219 181 198
157 177 173 172 174 170 158 179 186 189 186 151 91 87 82 62 62 119 174 300 483 462 395 321 256 201 178
144 168 160 170 172 161 152 154 150 146 137 118 83 81 76 69 53 88 110 214 284 316 277 274 223 220 233
124 150 157 170 161 159 160 144 117 112 99 74 57 65 57 52 47 45 47 86 117 96 131 128 201 210 262
132 128 151 147 158 158 165 152 122 98 99 76 63 60 52 54 54 52 55 98 122 125 175 153 194 168 153
107 123 129 126 155 145 142 139 122 93 64 77 40 45 35 39 59 59 68 105 113 107 107 112 113 113 145
100 102 100 106 117 114 124 131 117 93 65 74 35 34 35 37 43 33 54 74 89 115 109 104 112 118 116
97 82 83 84 100 148 140 143 108 78 48 56 28 47 32 29 41 54 52 63 74 81 91 85 92 94 96
80 90 93 111 114 82 96 100 101 82 39 66 77 64 63 50 46 39 53 71 55 57 78 72 72 87 89
91 88 84 90 104 113 108 79 104 72 43 74 64 74 66 65 69 61 62 53 71 78 66 57 60 89 91
91 85 83 86 87 101 98 94 78 52 42 63 46 59 92 105 108 52 74 77 76 72 79 64 60 55 68
92 96 81 92 79 71 78 70 77 86 88 75 67 67 83 101 71 65 91 67 71 69 55 57 62 62 68
86 87 99 74 67 63 72 60 75 73 64 67 71 82 90 81 104 76 53 37 64 64 60 58 55 50 57
100 101 88 86 75 67 64 70 82 78 100 81 84 94 90 82 74 77 85 82 96 94 91 67 63 65 63
95 86 90 96 85 86 77 87 107 93 78 79 87 86 68 58 71 94 89 103 125 121 115 100 81 79 69
93 88 89 86 69 74 70 68 77 94 99 98 95 91 87 87 81 33 115 123 141 128 121 123 121 99 81

GFSFLT2_con_3kmhel_114.txt.gz
Helicity
148 169 165 143 127 137 140 153 152 142 119 118 134 121 42 10 60 87 92 200 104 -2 4 33 32 38 157
132 138 150 148 137 159 162 164 166 179 141 115 125 85 29 30 86 115 119 242 204 145 13 37 77 79 436
122 137 137 143 143 144 145 150 156 156 169 158 117 70 44 50 90 125 144 198 353 318 296 266 295 279 134
124 126 114 126 133 126 132 136 135 138 131 117 81 63 47 54 82 106 124 167 283 334 348 358 309 204 121
153 154 140 130 129 126 137 135 124 123 116 90 65 62 46 55 54 76 70 127 162 247 237 248 313 351 358
133 110 92 115 123 141 148 137 118 119 112 88 79 66 39 29 39 53 58 42 90 112 143 131 184 134 177
98 97 98 100 128 138 132 132 124 102 81 86 67 56 17 14 14 29 50 55 58 101 155 131 160 184 192
82 76 85 101 110 104 109 123 114 94 78 85 53 34 13 3 18 31 35 51 73 112 149 157 178 171 158
102 76 73 83 101 137 126 144 108 89 71 68 41 37 8 9 9 33 43 51 68 74 77 118 131 142 164
91 85 103 110 89 100 102 111 103 93 55 77 61 41 18 31 32 37 53 66 71 76 79 85 100 116 127
100 104 100 111 117 120 105 84 76 78 33 58 45 64 56 67 41 34 38 47 71 67 50 55 68 86 86
105 97 88 94 99 102 100 93 65 46 45 66 41 56 61 46 59 67 50 62 72 79 71 67 50 53 77
95 88 92 91 89 89 90 80 77 72 66 48 36 30 35 55 73 75 58 49 55 81 79 81 63 63 77
80 79 103 94 87 73 78 69 73 58 52 42 40 45 64 61 82 78 55 51 56 82 74 74 55 42 40
93 118 99 91 87 77 76 71 67 67 58 46 52 61 58 58 65 71 65 64 59 58 65 56 47 43 37
88 108 107 99 92 94 90 79 73 72 88 86 101 116 76 48 63 92 87 87 100 84 90 59 38 58 61
99 92 90 86 66 94 84 78 80 85 102 139 109 84 93 94 54 32 85 100 117 104 103 101 83 81 82

GFSFLT2_con_3kmhel_117.txt.gz
Helicity
179 161 143 129 104 92 101 115 116 122 105 116 130 120 94 50 3 62 78 76 135 102 13 7 21 33 56
140 138 138 120 103 111 119 120 120 145 139 122 144 115 90 24 53 93 111 113 225 106 37 41 34 3 59
131 128 111 103 105 110 110 120 121 121 139 153 135 107 69 53 81 109 136 150 266 222 172 88 168 199 114
132 123 117 126 115 104 108 115 111 119 109 110 108 95 81 65 83 123 151 117 237 296 388 365 200 131 63
135 139 127 122 106 108 104 103 97 99 104 100 97 97 72 63 75 112 133 98 171 279 224 324 342 240 170
135 126 114 107 103 100 104 106 100 103 104 93 93 91 66 53 66 89 110 45 161 172 249 168 176 217 261
131 124 108 96 92 92 92 96 91 98 94 85 86 76 50 45 41 63 82 82 95 136 140 139 220 160 163
124 107 93 78 73 87 96 113 111 93 86 90 78 68 43 29 30 38 56 77 89 92 93 138 161 204 234
136 93 58 43 57 109 102 121 96 88 72 82 85 58 37 23 26 49 42 55 88 96 115 129 168 210 211
119 113 116 113 75 96 99 102 105 89 67 102 91 63 63 25 33 48 57 58 58 95 99 114 131 141 153
107 109 123 132 121 118 103 83 85 80 54 73 72 62 46 27 38 60 64 62 66 73 71 77 91 77 103
107 112 115 112 102 94 95 96 83 65 72 70 53 46 59 51 63 50 49 40 41 51 64 82 66 58 50
97 97 105 102 93 90 83 79 78 74 77 71 58 45 61 55 59 50 64 44 44 64 73 72 64 69 78
94 98 102 89 88 80 85 73 81 68 66 59 46 46 54 48 67 75 62 71 58 63 66 61 61 70 74
108 106 102 102 85 81 92 95 91 82 76 62 47 21 45 51 101 99 93 78 76 39 51 46 29 52 71
111 112 110 96 91 90 92 96 97 87 71 61 79 97 82 61 73 108 80 78 96 67 81 69 48 57 58
110 109 110 99 79 89 92 94 85 78 75 83 106 137 134 118 84 16 66 86 96 101 86 89 100 84 57

GFSFLT2_con_3kmhel_120.txt.gz
Helicity
166 177 161 127 109 94 84 111 118 134 97 98 101 99 85 76 59 18 66 69 75 125 94 33 23 47 52
166 169 147 126 120 91 85 107 111 128 142 103 117 102 82 76 44 57 86 89 109 221 109 29 44 38 40
158 167 160 136 107 99 97 105 113 113 117 127 117 94 83 80 67 82 93 94 136 278 174 109 119 64 32
168 164 155 129 117 109 95 101 116 123 100 100 84 79 80 83 73 81 98 89 143 230 294 200 142 210 229
162 157 130 123 110 119 105 109 108 111 108 101 91 95 88 69 65 87 84 81 74 215 206 258 179 166 295
153 137 128 120 127 111 105 114 118 110 97 93 94 91 76 64 57 81 82 63 105 172 228 241 340 99 131
129 121 127 122 120 107 96 99 96 94 88 77 82 79 69 55 63 72 70 59 97 143 144 203 242 195 209
131 134 134 134 117 101 104 100 102 85 94 86 83 74 59 46 54 68 63 74 85 123 145 148 133 199 194
128 125 116 97 92 118 101 118 89 84 79 81 82 68 67 55 47 55 68 77 84 95 153 183 207 203 221
141 151 159 144 108 115 110 97 92 84 68 80 83 69 87 58 42 52 63 97 94 101 113 144 163 167 181
135 147 158 164 153 144 118 89 84 83 68 65 77 70 79 59 39 48 58 72 81 99 121 105 111 115 132
132 125 131 130 122 125 117 100 96 75 72 75 75 71 70 65 48 53 65 65 63 58 60 79 94 92 92
119 127 133 125 133 108 91 85 84 69 67 71 75 69 74 66 75 81 92 57 45 42 45 60 66 70 87
138 151 143 133 104 95 98 89 88 82 75 62 67 62 63 60 84 92 63 107 80 59 57 57 50 52 55
158 154 127 117 106 96 103 101 95 99 92 77 61 50 50 71 99 95 101 106 79 69 78 71 43 34 41
144 128 114 108 105 99 98 105 103 108 109 86 84 87 90 87 71 139 124 114 109 89 80 79 69 54 54
132 117 113 98 104 103 93 96 96 105 103 98 99 99 129 129 98 78 117 121 112 105 92 93 81 82 66

GFSFLT2_con_3kmhel_123.txt.gz
Helicity
172 159 166 155 137 116 105 75 77 94 117 108 120 122 103 95 81 63 43 54 50 92 104 85 10 5 20
165 153 151 136 129 104 83 81 79 93 122 145 156 120 108 100 78 66 86 66 62 131 156 81 19 25 30
148 156 152 148 123 112 86 80 85 91 104 124 117 112 89 90 77 85 87 69 93 149 237 115 38 30 25
162 158 149 149 142 110 85 93 91 113 113 109 93 87 97 88 77 87 78 78 127 175 249 168 97 151 147
172 171 153 143 114 100 97 95 101 111 114 118 117 111 95 79 64 81 69 76 86 158 165 123 80 136 149
161 141 128 120 125 115 114 119 110 115 125 122 115 103 88 73 64 64 62 70 83 104 240 239 111 69 46
143 124 128 117 140 138 113 115 108 111 116 105 113 97 79 57 61 58 51 70 98 115 151 186 209 143 74
125 121 130 137 146 138 133 125 118 97 104 99 103 85 67 56 44 54 59 60 75 98 96 169 201 229 181
141 139 140 142 154 171 140 133 102 100 98 101 94 73 67 54 40 53 63 47 71 112 153 132 107 185 210
172 185 175 150 111 129 138 133 122 102 92 101 88 68 85 58 52 45 53 63 86 78 111 145 188 188 242
152 156 167 169 173 165 154 142 136 115 88 87 76 68 72 54 44 43 49 52 54 82 109 113 118 127 155
155 138 143 146 151 162 160 151 144 132 115 101 85 69 71 61 55 46 38 39 51 57 69 84 99 98 95
127 126 137 149 172 156 145 138 128 109 98 88 76 78 77 58 57 61 69 44 35 43 43 44 46 61 84
128 153 174 158 149 141 125 119 118 103 90 81 71 70 72 52 61 60 66 101 61 44 43 43 40 40 49
148 160 151 149 145 131 132 119 108 105 95 84 67 55 50 66 66 56 67 75 65 68 75 84 58 40 31
142 153 153 152 155 126 116 100 99 92 91 97 97 95 79 67 52 71 59 68 77 80 95 114 104 71 49
143 144 160 151 142 122 104 104 93 90 90 106 108 110 117 115 119 54 97 93 107 107 98 102 111 84 56

GFSFLT2_con_3kmhel_126.txt.gz
Helicity
218 191 159 149 150 142 112 126 110 83 90 104 99 110 100 103 82 66 58 67 73 81 101 95 44 6 8
198 169 153 147 135 136 121 104 89 75 73 84 115 117 110 85 81 69 76 99 104 118 137 116 44 16 30
155 171 166 167 177 149 128 100 74 57 67 74 99 107 89 91 85 64 90 114 136 139 181 198 47 52 32
159 189 191 152 170 147 118 107 89 94 80 78 92 78 94 87 76 74 88 140 137 162 147 159 107 99 147
169 176 167 172 156 142 133 112 88 83 98 114 119 114 109 100 78 75 84 139 144 178 107 41 45 83 54
188 145 139 151 157 137 126 112 99 102 124 117 120 100 93 88 83 88 95 130 148 177 186 137 75 62 70
168 136 134 129 161 152 125 113 110 126 122 107 113 100 97 85 79 84 71 112 137 164 175 179 79 53 13
141 95 124 134 133 113 111 126 137 121 115 106 115 89 84 81 82 72 77 93 131 169 121 201 236 214 136
147 139 136 120 136 177 156 156 136 119 105 99 94 81 86 77 61 71 88 102 101 134 81 63 180 202 210
187 180 155 113 102 123 147 164 161 126 97 100 94 81 91 67 68 67 70 93 92 111 136 165 162 161 195
165 153 162 172 166 149 142 149 144 134 107 107 92 85 83 71 59 57 60 65 71 75 109 139 155 158 185
186 179 174 166 166 179 181 170 166 147 144 121 103 80 77 76 68 57 49 49 56 48 64 94 128 133 122
185 183 163 166 193 192 181 170 157 140 127 108 94 85 74 72 61 67 70 44 46 49 50 55 59 65 81
185 195 211 184 175 168 153 144 139 116 108 88 74 79 87 68 70 65 66 70 53 38 37 44 38 38 43
204 203 194 167 162 162 162 155 142 117 107 85 76 74 69 71 75 60 54 53 48 49 57 49 29 27 28
178 180 179 170 172 163 161 142 129 104 100 95 101 102 94 72 50 71 60 56 53 48 57 79 79 71 61
205 171 172 177 173 156 141 130 107 102 91 104 111 119 128 100 84 38 58 53 65 74 68 71 80 92 91

GFSFLT2_con_3kmhel_129.txt.gz
Helicity
385 383 278 283 203 167 156 124 107 106 89 83 83 69 85 82 76 68 64 56 46 51 43 59 65 10 11
460 391 371 267 161 133 124 129 122 90 72 64 80 99 83 75 69 62 59 70 71 71 98 151 116 36 35
414 362 273 227 165 150 142 119 107 87 78 80 79 66 75 73 50 67 67 100 81 89 159 169 130 96 56
349 272 210 187 158 183 151 126 121 119 107 79 61 75 69 64 67 74 85 103 98 119 137 116 106 117 103
278 233 185 177 139 147 140 152 128 103 96 84 95 86 76 80 77 77 95 122 117 140 126 103 65 62 63
217 153 151 141 146 159 172 149 96 104 108 112 98 86 96 99 91 78 100 129 152 165 183 136 81 94 84
275 161 160 94 165 137 141 138 129 124 113 108 103 110 111 102 87 85 95 122 158 173 180 197 74 56 89
182 234 172 157 140 129 128 148 165 132 111 108 118 115 97 92 93 91 83 113 144 156 201 226 154 101 75
244 141 106 101 150 199 175 169 148 112 101 110 112 110 98 86 83 97 105 138 140 177 181 160 218 184 156
196 155 116 117 118 129 159 142 147 140 115 114 105 99 98 91 84 88 86 90 115 156 164 136 122 192 180
191 122 140 148 153 131 121 141 151 164 111 124 115 117 112 99 78 76 80 79 87 103 159 169 177 204 192
164 111 118 140 154 167 171 173 188 157 146 134 128 110 107 91 80 73 68 78 70 73 98 135 192 193 194
247 213 156 150 190 221 220 213 198 182 166 146 126 113 97 84 92 81 79 61 58 51 66 93 109 127 128
285 234 215 212 193 191 184 153 148 144 151 134 111 101 99 79 72 73 68 74 58 47 58 64 62 59 70
199 255 204 205 190 166 186 175 146 131 120 122 125 101 85 82 82 56 61 61 65 80 61 55 40 33 42
290 276 270 246 208 172 176 139 147 126 121 130 124 119 99 63 41 77 69 60 70 68 63 81 80 65 59
275 261 281 203 196 188 155 158 158 116 122 116 108 117 104 86 89 25 62 69 70 71 60 79 99 94 101